Back to catalog

DELTA 1 DEB

AliveLEO
NORAD 7024·DEBRIS·🇺🇸 United States

Launched Nov 6, 1973 from Vandenberg Space Force Base

Loading…

Next Passes (next 24 hours)

TLE

FreshSource: Space-Track

Epoch: Sep 14, 2026, 11:12 UTC

1 07024U 73086Q   26257.46680686  .00001972  00000-0  90032-2 0  9998
2 07024 101.8803 336.5351 0063164  72.5772 300.8142 12.78361835442879

Track DELTA 1 DEB in real time with AllMySat

Download on the App Store